TimeEAT,TemperatureF,Dew PointF,Humidity,Sea Level PressureIn,VisibilityMPH,Wind Direction,Wind SpeedMPH,Gust SpeedMPH,PrecipitationIn,Events,Conditions,WindDirDegrees,DateUTC
12:00 AM,84.2,66.2,55,29.80,-9999.0,SE,15.0,-,N/A,,Unknown,140,2013-02-13 21:00:00
1:00 AM,82.4,68.0,62,29.80,-9999.0,South,12.7,-,N/A,,Clear,180,2013-02-13 22:00:00
2:00 AM,80.6,68.0,65,29.80,-9999.0,SSE,11.5,-,N/A,,Clear,160,2013-02-13 23:00:00
3:00 AM,78,67,60,29.81,19,SE,11.5,,,,,140,2013-02-14 00:00:00
5:00 AM,77.0,68.0,74,29.83,-9999.0,SE,6.9,-,N/A,,Clear,140,2013-02-14 02:00:00
6:00 AM,75.2,69.8,83,29.83,6.2,South,3.5,-,N/A,,Mostly Cloudy,180,2013-02-14 03:00:00
7:00 AM,77.0,69.8,78,29.86,6.2,SE,6.9,-,N/A,,Mostly Cloudy,140,2013-02-14 04:00:00
8:00 AM,77.0,69.8,78,29.89,6.2,South,3.5,-,N/A,,Mostly Cloudy,180,2013-02-14 05:00:00
9:00 AM,80,69,61,29.90,22,SE,8.1,,,,Mostly Cloudy,140,2013-02-14 06:00:00
9:00 AM,78.8,68.0,69,29.89,6.2,SE,8.1,-,N/A,,Mostly Cloudy,140,2013-02-14 06:00:00
10:00 AM,84.2,68.0,58,29.92,6.2,East,9.2,-,N/A,,Mostly Cloudy,90,2013-02-14 07:00:00
11:00 AM,87.8,66.2,49,29.86,6.2,East,5.8,-,N/A,,Scattered Clouds,90,2013-02-14 08:00:00
12:00 PM,89.6,66.2,46,29.83,6.2,East,11.5,-,N/A,,Partly Cloudy,90,2013-02-14 09:00:00
2:00 PM,95.0,64.4,36,29.83,6.2,WSW,9.2,-,N/A,,Scattered Clouds,240,2013-02-14 11:00:00
3:00 PM,98,65,24,29.70,25,East,11.5,,,,Partly Cloudy,90,2013-02-14 12:00:00
3:00 PM,98.6,64.4,32,29.71,6.2,East,11.5,-,N/A,,Scattered Clouds,90,2013-02-14 12:00:00
4:00 PM,98.6,66.2,35,29.71,6.2,NW,9.2,-,N/A,,Partly Cloudy,320,2013-02-14 13:00:00
5:00 PM,98.6,62.6,30,29.71,6.2,North,9.2,-,N/A,,Partly Cloudy,360,2013-02-14 14:00:00
6:00 PM,98.6,62.6,30,29.71,-9999.0,ESE,4.6,-,N/A,,Clear,110,2013-02-14 15:00:00
7:00 PM,95.0,62.6,34,29.74,-9999.0,NE,6.9,-,N/A,,Clear,50,2013-02-14 16:00:00
8:00 PM,93.2,64.4,38,29.74,-9999.0,Calm,Calm,-,N/A,,Clear,0,2013-02-14 17:00:00
9:00 PM,89.6,64.4,43,29.74,-9999.0,East,4.6,-,N/A,,Clear,90,2013-02-14 18:00:00
10:00 PM,86.0,64.4,48,29.77,-9999.0,Calm,Calm,-,N/A,,Clear,0,2013-02-14 19:00:00
11:00 PM,84.2,64.4,51,29.77,-9999.0,East,11.5,-,N/A,,Clear,90,2013-02-14 20:00:00